WZZ1700 LIBD-EPWA

Flight info

Callsign WZZ1700
Flight time 1h 40m
Altitude 37000
Route BANAV DCT AIOSA DCT NETKO DCT BAREB DCT AMRAX DCT SUPAK DCT ORTEB/N0431F360 DCT KONZI DCT LOGDA
Aircraft A20N/M-SDE1E2E3FGIJ1J4RWXY/LB1

Departure

Time 2026-05-08 17:25
Airport Bari Karol Wojtyła International Airport (LIBD)

Arrival

Time 2026-05-08 19:05
Airport Warsaw Chopin Airport (EPWA)
Time Latitude Longitude Altitude Speed Heading
2026-05-08 17:09 41.13533 16.76341 143 ft 0 kts 162°
2026-05-08 17:17 41.13540 16.76338 142 ft 1 kts 162°
2026-05-08 17:17 41.13547 16.76335 142 ft 1 kts 162°
2026-05-08 17:17 41.13555 16.76332 142 ft 1 kts 162°
2026-05-08 17:18 41.13562 16.76328 141 ft 1 kts 163°
2026-05-08 17:18 41.13569 16.76326 141 ft 1 kts 169°
2026-05-08 17:18 41.13577 16.76324 141 ft 1 kts 176°
2026-05-08 17:18 41.13585 16.76323 140 ft 1 kts 191°
2026-05-08 17:19 41.13592 16.76326 140 ft 1 kts 206°
2026-05-08 17:19 41.13599 16.76331 140 ft 1 kts 222°
2026-05-08 17:19 41.13604 16.76337 139 ft 0 kts 236°
2026-05-08 17:20 41.13598 16.76323 140 ft 6 kts 244°
2026-05-08 17:20 41.13572 16.76236 143 ft 13 kts 250°
2026-05-08 17:21 41.13559 16.76120 145 ft 12 kts 294°
2026-05-08 17:21 41.13626 16.76032 144 ft 15 kts 305°
2026-05-08 17:21 41.13624 16.75910 149 ft 13 kts 250°
2026-05-08 17:21 41.13592 16.75805 152 ft 12 kts 249°
2026-05-08 17:22 41.13561 16.75690 154 ft 14 kts 250°
2026-05-08 17:22 41.13525 16.75566 157 ft 15 kts 250°
2026-05-08 17:22 41.13485 16.75424 158 ft 20 kts 249°
2026-05-08 17:22 41.13428 16.75224 162 ft 25 kts 249°
2026-05-08 17:23 41.13366 16.75008 169 ft 24 kts 249°
2026-05-08 17:23 41.13327 16.74868 174 ft 23 kts 249°
2026-05-08 17:23 41.13254 16.74613 180 ft 22 kts 248°
2026-05-08 17:23 41.13205 16.74438 195 ft 19 kts 249°
2026-05-08 17:24 41.13164 16.74274 196 ft 17 kts 268°
2026-05-08 17:24 41.13223 16.74130 188 ft 18 kts 317°
2026-05-08 17:24 41.13308 16.74143 197 ft 13 kts 66°
2026-05-08 17:24 41.13382 16.74403 181 ft 66 kts 70°
2026-05-08 17:25 41.13636 16.75294 160 ft 136 kts 69°
2026-05-08 17:25 41.13878 16.76171 354 ft 155 kts 71°
2026-05-08 17:25 41.14264 16.77523 1036 ft 160 kts 65°
2026-05-08 17:25 41.14731 16.78882 1820 ft 163 kts 62°
2026-05-08 17:26 41.15214 16.80286 2467 ft 175 kts 66°
2026-05-08 17:26 41.15686 16.81882 2949 ft 197 kts 69°
2026-05-08 17:26 41.16177 16.83697 3434 ft 218 kts 70°
2026-05-08 17:26 41.16693 16.85663 4084 ft 235 kts 71°
2026-05-08 17:27 41.17242 16.87760 4850 ft 243 kts 71°
2026-05-08 17:27 41.17846 16.89863 5776 ft 246 kts 61°
2026-05-08 17:27 41.18978 16.91579 6604 ft 254 kts 34°
2026-05-08 17:27 41.20652 16.92477 7255 ft 269 kts 12°
2026-05-08 17:28 41.22520 16.92782 8138 ft 271 kts
2026-05-08 17:28 41.24389 16.92946 9090 ft 273 kts
2026-05-08 17:28 41.26303 16.93143 9977 ft 278 kts
2026-05-08 17:28 41.28274 16.93401 10524 ft 295 kts
2026-05-08 17:29 41.30398 16.93728 10776 ft 320 kts
2026-05-08 17:29 41.32672 16.94112 11206 ft 335 kts
2026-05-08 17:29 41.35007 16.94521 11961 ft 341 kts
2026-05-08 17:29 41.37375 16.94936 12730 ft 346 kts
2026-05-08 17:30 41.39787 16.95358 13436 ft 353 kts
2026-05-08 17:30 41.42241 16.95787 14114 ft 358 kts
2026-05-08 17:30 41.44729 16.96219 14800 ft 362 kts
2026-05-08 17:30 41.47243 16.96656 15481 ft 367 kts
2026-05-08 17:31 41.49788 16.97098 16143 ft 371 kts
2026-05-08 17:31 41.52363 16.97546 16805 ft 375 kts
2026-05-08 17:31 41.54966 16.97999 17456 ft 380 kts
2026-05-08 17:31 41.57604 16.98459 18102 ft 384 kts
2026-05-08 17:32 41.60266 16.98923 18689 ft 388 kts
2026-05-08 17:32 41.62953 16.99392 19280 ft 391 kts
2026-05-08 17:32 41.65665 16.99865 19856 ft 394 kts
2026-05-08 17:32 41.68396 17.00342 20425 ft 398 kts
2026-05-08 17:33 41.71127 17.01053 20981 ft 404 kts 15°
2026-05-08 17:33 41.73727 17.02564 21533 ft 412 kts 28°
2026-05-08 17:33 41.76046 17.04859 22105 ft 418 kts 39°
2026-05-08 17:33 41.78224 17.07459 22649 ft 421 kts 39°
2026-05-08 17:34 41.80424 17.10077 23184 ft 425 kts 39°
2026-05-08 17:34 41.82644 17.12714 23712 ft 428 kts 39°
2026-05-08 17:34 41.84881 17.15372 24147 ft 431 kts 39°
2026-05-08 17:34 41.87133 17.18050 24584 ft 434 kts 38°
2026-05-08 17:35 41.89401 17.20750 25027 ft 437 kts 38°
2026-05-08 17:35 41.91805 17.23246 25447 ft 437 kts 29°
2026-05-08 17:35 41.94436 17.25149 25851 ft 435 kts 20°
2026-05-08 17:35 41.97287 17.26475 26259 ft 433 kts 11°
2026-05-08 17:36 42.00211 17.27524 26662 ft 436 kts 11°
2026-05-08 17:36 42.03149 17.28595 27067 ft 439 kts 11°
2026-05-08 17:36 42.06105 17.29680 27455 ft 442 kts 11°
2026-05-08 17:36 42.09077 17.30771 27831 ft 444 kts 11°
2026-05-08 17:37 42.12065 17.31867 28198 ft 447 kts 12°
2026-05-08 17:37 42.15084 17.32972 28507 ft 451 kts 12°
2026-05-08 17:37 42.18117 17.34086 28863 ft 453 kts 12°
2026-05-08 17:37 42.21162 17.35205 29202 ft 455 kts 12°
2026-05-08 17:38 42.24228 17.36333 29525 ft 458 kts 12°
2026-05-08 17:38 42.27306 17.37467 29846 ft 460 kts 12°
2026-05-08 17:38 42.30403 17.38609 30160 ft 463 kts 12°
2026-05-08 17:38 42.33518 17.39756 30415 ft 465 kts 12°
2026-05-08 17:39 42.36655 17.40911 30630 ft 469 kts 13°
2026-05-08 17:39 42.39806 17.42077 30958 ft 470 kts 13°
2026-05-08 17:39 42.42961 17.43247 31297 ft 470 kts 12°
2026-05-08 17:39 42.46114 17.44418 31690 ft 469 kts 12°
2026-05-08 17:40 42.49257 17.45585 32102 ft 468 kts 13°
2026-05-08 17:40 42.52401 17.46752 32412 ft 469 kts 13°
2026-05-08 17:40 42.55542 17.47920 32786 ft 467 kts 13°
2026-05-08 17:40 42.58675 17.49087 33167 ft 466 kts 13°
2026-05-08 17:41 42.61799 17.50252 33532 ft 465 kts 13°
2026-05-08 17:41 42.64915 17.51415 33894 ft 464 kts 13°
2026-05-08 17:41 42.68025 17.52576 34201 ft 463 kts 13°
2026-05-08 17:41 42.71142 17.53738 34378 ft 465 kts 13°
2026-05-08 17:42 42.74261 17.54905 34645 ft 465 kts 13°
2026-05-08 17:42 42.77374 17.56073 34917 ft 464 kts 13°
2026-05-08 17:42 42.80481 17.57239 35173 ft 463 kts 13°
2026-05-08 17:42 42.83586 17.58405 35420 ft 462 kts 12°
2026-05-08 17:43 42.86689 17.59571 35668 ft 462 kts 13°
2026-05-08 17:43 42.89794 17.60738 35848 ft 463 kts 12°
2026-05-08 17:43 42.92897 17.61907 36083 ft 462 kts 12°
2026-05-08 17:43 42.95996 17.63075 36321 ft 462 kts 12°
2026-05-08 17:44 42.99089 17.64243 36545 ft 461 kts 12°
2026-05-08 17:44 43.02179 17.65410 36768 ft 460 kts 12°
2026-05-08 17:44 43.05279 17.66472 36974 ft 458 kts
2026-05-08 17:44 43.08372 17.67280 37014 ft 459 kts
2026-05-08 17:45 43.14625 17.68942 37011 ft 458 kts
2026-05-08 17:45 43.20872 17.70608 37015 ft 458 kts
2026-05-08 17:46 43.27127 17.72278 37010 ft 458 kts
2026-05-08 17:46 43.33385 17.73952 37011 ft 458 kts
2026-05-08 17:47 43.39642 17.75630 37008 ft 458 kts
2026-05-08 17:47 43.44848 17.77028 37008 ft 459 kts
2026-05-08 17:48 43.52171 17.79000 37010 ft 459 kts
2026-05-08 17:48 43.58435 17.80690 37012 ft 459 kts
2026-05-08 17:49 43.64716 17.82388 37024 ft 460 kts
2026-05-08 17:49 43.70996 17.84091 37007 ft 458 kts
2026-05-08 17:50 43.77256 17.85790 37011 ft 459 kts
2026-05-08 17:50 43.83525 17.87496 37012 ft 459 kts
2026-05-08 17:51 43.89800 17.89207 37016 ft 460 kts
2026-05-08 17:51 43.96079 17.90923 37016 ft 459 kts
2026-05-08 17:52 44.02341 17.92638 37006 ft 458 kts
2026-05-08 17:53 44.11709 17.95212 36999 ft 457 kts
2026-05-08 17:53 44.17950 17.96930 36991 ft 457 kts
2026-05-08 17:54 44.24219 17.98658 37019 ft 461 kts
2026-05-08 17:54 44.30510 18.00399 37022 ft 461 kts
2026-05-08 17:55 44.36794 18.02141 37018 ft 461 kts
2026-05-08 17:55 44.43053 18.03879 37020 ft 461 kts
2026-05-08 17:56 44.49346 18.05631 37019 ft 461 kts
2026-05-08 17:56 44.55645 18.07389 37021 ft 462 kts
2026-05-08 17:57 44.61950 18.09153 37021 ft 462 kts
2026-05-08 17:57 44.68260 18.10921 37025 ft 463 kts
2026-05-08 17:58 44.74576 18.12695 37030 ft 463 kts
2026-05-08 17:58 44.80893 18.14474 37013 ft 461 kts
2026-05-08 17:59 44.87190 18.16251 37020 ft 463 kts
2026-05-08 17:59 44.93507 18.18036 37019 ft 462 kts
2026-05-08 18:00 44.99816 18.19824 37017 ft 463 kts
2026-05-08 18:00 45.09287 18.22515 37020 ft 463 kts
2026-05-08 18:01 45.15599 18.24314 37017 ft 463 kts
2026-05-08 18:01 45.21917 18.26119 37016 ft 463 kts
2026-05-08 18:02 45.27167 18.27621 37016 ft 463 kts
2026-05-08 18:02 45.34548 18.29739 37016 ft 463 kts
2026-05-08 18:03 45.40826 18.31544 37017 ft 463 kts
2026-05-08 18:03 45.47139 18.33364 37017 ft 463 kts
2026-05-08 18:04 45.53460 18.35191 37015 ft 464 kts
2026-05-08 18:04 45.59784 18.37022 37018 ft 464 kts
2026-05-08 18:05 45.66111 18.38857 37019 ft 464 kts
2026-05-08 18:05 45.72441 18.40698 37021 ft 464 kts
2026-05-08 18:06 45.78725 18.42955 37022 ft 466 kts 12°
2026-05-08 18:06 45.84990 18.45386 37040 ft 466 kts 12°
2026-05-08 18:07 45.91260 18.47819 37043 ft 467 kts 12°
2026-05-08 18:07 45.97534 18.50270 37045 ft 467 kts 12°
2026-05-08 18:08 46.03813 18.52732 37038 ft 468 kts 12°
2026-05-08 18:08 46.10093 18.55201 37031 ft 468 kts 12°
2026-05-08 18:09 46.16379 18.57678 37033 ft 469 kts 12°
2026-05-08 18:09 46.22670 18.60161 37025 ft 469 kts 12°
2026-05-08 18:10 46.28959 18.62651 37024 ft 469 kts 12°
2026-05-08 18:10 46.34191 18.64727 37024 ft 469 kts 12°
2026-05-08 18:11 46.40484 18.67229 37028 ft 469 kts 12°
2026-05-08 18:11 46.46765 18.69732 37035 ft 469 kts 12°
2026-05-08 18:12 46.53061 18.72247 37027 ft 469 kts 12°
2026-05-08 18:12 46.59355 18.74767 37029 ft 469 kts 12°
2026-05-08 18:13 46.65648 18.77293 37039 ft 469 kts 12°
2026-05-08 18:13 46.71938 18.79824 37029 ft 469 kts 12°
2026-05-08 18:14 46.78224 18.82360 37034 ft 469 kts 12°
2026-05-08 18:14 46.84517 18.84904 37030 ft 469 kts 12°
2026-05-08 18:15 46.90801 18.87452 37028 ft 469 kts 12°
2026-05-08 18:15 46.97088 18.90006 37028 ft 469 kts 12°
2026-05-08 18:16 47.03376 18.92567 37025 ft 469 kts 12°
2026-05-08 18:16 47.09664 18.95135 37027 ft 469 kts 11°
2026-05-08 18:17 47.15950 18.97708 37026 ft 469 kts 11°
2026-05-08 18:17 47.22196 19.00271 37025 ft 469 kts 11°
2026-05-08 18:18 47.28478 19.02855 37022 ft 469 kts 11°
2026-05-08 18:18 47.34762 19.05446 37022 ft 469 kts 11°
2026-05-08 18:19 47.41047 19.08043 37019 ft 469 kts 12°
2026-05-08 18:19 47.47336 19.10650 37028 ft 469 kts 11°
2026-05-08 18:20 47.53622 19.13261 37047 ft 469 kts 11°
2026-05-08 18:20 47.59896 19.15874 37025 ft 467 kts 11°
2026-05-08 18:21 47.66154 19.18486 37027 ft 468 kts 11°
2026-05-08 18:21 47.72413 19.21106 37030 ft 467 kts 11°
2026-05-08 18:22 47.78665 19.23729 37033 ft 467 kts 11°
2026-05-08 18:22 47.84926 19.26361 37035 ft 467 kts 11°
2026-05-08 18:23 47.91181 19.29000 37040 ft 468 kts 11°
2026-05-08 18:23 47.97441 19.31646 37038 ft 468 kts 11°
2026-05-08 18:24 48.03702 19.34299 37032 ft 467 kts 11°
2026-05-08 18:24 48.09956 19.36951 37053 ft 467 kts 11°
2026-05-08 18:25 48.16263 19.39211 37037 ft 466 kts
2026-05-08 18:25 48.22584 19.41340 37037 ft 466 kts
2026-05-08 18:26 48.28897 19.43532 37033 ft 465 kts
2026-05-08 18:26 48.35158 19.45736 37042 ft 465 kts
2026-05-08 18:27 48.40441 19.47602 37041 ft 465 kts
2026-05-08 18:27 48.47764 19.50194 37052 ft 465 kts
2026-05-08 18:28 48.54060 19.52429 37055 ft 465 kts
2026-05-08 18:28 48.60361 19.54671 37060 ft 465 kts
2026-05-08 18:29 48.66665 19.56920 37065 ft 465 kts
2026-05-08 18:29 48.72948 19.59166 37057 ft 464 kts
2026-05-08 18:30 48.79232 19.61419 37071 ft 463 kts
2026-05-08 18:30 48.85492 19.63670 37073 ft 463 kts
2026-05-08 18:31 48.91763 19.65931 37103 ft 463 kts
2026-05-08 18:31 48.98030 19.68157 37076 ft 462 kts
2026-05-08 18:32 49.04280 19.70441 37081 ft 462 kts
2026-05-08 18:32 49.10527 19.72725 37090 ft 462 kts
2026-05-08 18:33 49.16740 19.74990 37094 ft 462 kts
2026-05-08 18:33 49.22993 19.77267 37112 ft 462 kts
2026-05-08 18:34 49.29190 19.80016 37107 ft 468 kts 17°
2026-05-08 18:34 49.35052 19.84458 37111 ft 474 kts 28°
2026-05-08 18:35 49.40666 19.89786 37110 ft 474 kts 27°
2026-05-08 18:35 49.46411 19.94633 37112 ft 467 kts 14°
2026-05-08 18:36 49.52646 19.97069 37111 ft 462 kts
2026-05-08 18:36 49.58909 19.99386 37132 ft 464 kts 10°
2026-05-08 18:37 49.65148 20.02003 37121 ft 465 kts 11°
2026-05-08 18:37 49.71379 20.04713 37120 ft 465 kts 11°
2026-05-08 18:38 49.77612 20.07433 37127 ft 466 kts 11°
2026-05-08 18:38 49.83850 20.10158 37124 ft 466 kts 11°
2026-05-08 18:39 49.90087 20.12888 37127 ft 466 kts 11°
2026-05-08 18:39 49.96330 20.15629 37129 ft 466 kts 11°
2026-05-08 18:40 50.02570 20.18378 37129 ft 466 kts 11°
2026-05-08 18:40 50.08815 20.21131 37131 ft 467 kts 12°
2026-05-08 18:41 50.15059 20.23896 37131 ft 466 kts 12°
2026-05-08 18:41 50.21258 20.26649 37129 ft 466 kts 12°
2026-05-08 18:42 50.24381 20.28039 36972 ft 466 kts 12°
2026-05-08 18:42 50.27499 20.29427 36467 ft 466 kts 12°
2026-05-08 18:42 50.30629 20.30822 35713 ft 469 kts 12°
2026-05-08 18:42 50.33779 20.32229 34863 ft 473 kts 12°
2026-05-08 18:43 50.36965 20.33653 33946 ft 478 kts 11°
2026-05-08 18:43 50.40170 20.35088 32985 ft 480 kts 11°
2026-05-08 18:43 50.43381 20.36529 32051 ft 481 kts 11°
2026-05-08 18:43 50.46604 20.37978 31157 ft 482 kts 11°
2026-05-08 18:44 50.49811 20.39423 30612 ft 476 kts 11°
2026-05-08 18:44 50.52970 20.40851 30012 ft 470 kts 11°
2026-05-08 18:44 50.56094 20.42263 29430 ft 463 kts 11°
2026-05-08 18:44 50.59149 20.43646 29034 ft 452 kts 11°
2026-05-08 18:45 50.62165 20.45010 28230 ft 451 kts 11°
2026-05-08 18:45 50.65162 20.46365 27752 ft 443 kts 11°
2026-05-08 18:45 50.68103 20.47699 27247 ft 437 kts 11°
2026-05-08 18:45 50.71006 20.49017 26729 ft 432 kts 12°
2026-05-08 18:46 50.73880 20.50322 26173 ft 427 kts 12°
2026-05-08 18:46 50.76723 20.51615 25648 ft 422 kts 12°
2026-05-08 18:46 50.79530 20.52893 25124 ft 418 kts 12°
2026-05-08 18:46 50.82313 20.54162 24603 ft 414 kts 12°
2026-05-08 18:47 50.85064 20.55419 24091 ft 410 kts 12°
2026-05-08 18:47 50.87798 20.56669 23535 ft 407 kts 12°
2026-05-08 18:47 50.90504 20.57908 23008 ft 402 kts 12°
2026-05-08 18:47 50.93168 20.59130 22508 ft 396 kts 12°
2026-05-08 18:48 50.95765 20.60324 21999 ft 392 kts 12°
2026-05-08 18:48 50.98402 20.61536 21491 ft 387 kts 12°
2026-05-08 18:48 51.00941 20.62700 21001 ft 383 kts 12°
2026-05-08 18:48 51.03482 20.63864 20507 ft 379 kts 12°
2026-05-08 18:49 51.06014 20.65026 20012 ft 376 kts 12°
2026-05-08 18:49 51.08516 20.66177 19527 ft 373 kts 12°
2026-05-08 18:49 51.10996 20.67322 19024 ft 370 kts 12°
2026-05-08 18:49 51.13464 20.68463 18547 ft 368 kts 12°
2026-05-08 18:50 51.15915 20.69600 18039 ft 365 kts 12°
2026-05-08 18:50 51.18346 20.70731 17525 ft 362 kts 12°
2026-05-08 18:50 51.20755 20.71852 17055 ft 359 kts 12°
2026-05-08 18:50 51.23140 20.72962 16577 ft 355 kts 12°
2026-05-08 18:51 51.25505 20.74064 16101 ft 352 kts 12°
2026-05-08 18:51 51.27849 20.75157 15631 ft 350 kts 13°
2026-05-08 18:51 51.30173 20.76241 15160 ft 347 kts 13°
2026-05-08 18:51 51.32483 20.77321 14695 ft 345 kts 13°
2026-05-08 18:52 51.34778 20.78394 14235 ft 343 kts 13°
2026-05-08 18:52 51.37060 20.79462 13754 ft 341 kts 13°
2026-05-08 18:52 51.39328 20.80525 13290 ft 338 kts 13°
2026-05-08 18:52 51.41575 20.81578 12834 ft 334 kts 13°
2026-05-08 18:53 51.43797 20.82621 12382 ft 331 kts 13°
2026-05-08 18:53 51.45997 20.83654 11936 ft 328 kts 13°
2026-05-08 18:53 51.48179 20.84680 11483 ft 326 kts 13°
2026-05-08 18:53 51.50365 20.85707 10905 ft 328 kts 14°
2026-05-08 18:54 51.52542 20.86733 10476 ft 324 kts 14°
2026-05-08 18:54 51.54669 20.87739 10306 ft 312 kts 14°
2026-05-08 18:54 51.56709 20.88706 10176 ft 299 kts 14°
2026-05-08 18:54 51.58686 20.89643 9844 ft 294 kts 14°
2026-05-08 18:55 51.62539 20.91467 9540 ft 290 kts 14°
2026-05-08 18:55 51.64491 20.92389 9206 ft 294 kts 14°
2026-05-08 18:55 51.66445 20.93315 8837 ft 293 kts 14°
2026-05-08 18:56 51.68391 20.94240 8467 ft 290 kts 14°
2026-05-08 18:56 51.70318 20.95158 8101 ft 287 kts 14°
2026-05-08 18:56 51.72220 20.96063 7739 ft 284 kts 14°
2026-05-08 18:56 51.74102 20.96960 7379 ft 281 kts 14°
2026-05-08 18:57 51.75970 20.97850 7019 ft 278 kts 14°
2026-05-08 18:57 51.77196 20.98436 6782 ft 277 kts 14°
2026-05-08 18:57 51.79656 20.99610 6294 ft 274 kts 14°
2026-05-08 18:57 51.81463 21.00473 6077 ft 266 kts 14°
2026-05-08 18:58 51.83189 21.01302 5925 ft 250 kts 14°
2026-05-08 18:58 51.84271 21.01822 5834 ft 240 kts 14°
2026-05-08 18:58 51.85813 21.02561 5691 ft 224 kts 13°
2026-05-08 18:58 51.87283 21.03265 5332 ft 219 kts 13°
2026-05-08 18:59 51.89214 21.04189 4915 ft 218 kts 13°
2026-05-08 18:59 51.90661 21.04881 4615 ft 216 kts 13°
2026-05-08 18:59 51.92091 21.05565 4330 ft 213 kts 14°
2026-05-08 18:59 51.93507 21.06244 4061 ft 211 kts 14°
2026-05-08 19:00 51.94452 21.06697 3883 ft 209 kts 14°
2026-05-08 19:00 51.95842 21.07365 3633 ft 205 kts 14°
2026-05-08 19:00 51.97168 21.08005 3503 ft 192 kts 14°
2026-05-08 19:00 51.98421 21.08609 3275 ft 185 kts 14°
2026-05-08 19:01 51.99653 21.09200 3036 ft 183 kts 14°
2026-05-08 19:01 52.00885 21.09693 3011 ft 185 kts
2026-05-08 19:01 52.02129 21.09341 3009 ft 182 kts 335°
2026-05-08 19:01 52.03240 21.08381 3026 ft 180 kts 328°
2026-05-08 19:02 52.04330 21.07381 2892 ft 181 kts 332°
2026-05-08 19:02 52.05429 21.06427 2641 ft 175 kts 331°
2026-05-08 19:02 52.06460 21.05531 2406 ft 161 kts 332°
2026-05-08 19:02 52.07409 21.04704 2196 ft 148 kts 332°
2026-05-08 19:03 52.08268 21.03956 2008 ft 133 kts 332°
2026-05-08 19:03 52.09070 21.03258 1830 ft 132 kts 332°
2026-05-08 19:03 52.09863 21.02566 1650 ft 130 kts 332°
2026-05-08 19:03 52.10688 21.01847 1510 ft 135 kts 332°
2026-05-08 19:04 52.11536 21.01107 1394 ft 146 kts 332°
2026-05-08 19:04 52.12409 21.00348 1076 ft 139 kts 333°
2026-05-08 19:04 52.13238 20.99632 819 ft 131 kts 333°
2026-05-08 19:04 52.14020 20.98950 627 ft 123 kts 334°
2026-05-08 19:05 52.14748 20.98312 450 ft 114 kts 333°
2026-05-08 19:05 52.15427 20.97711 348 ft 107 kts 334°
2026-05-08 19:05 52.15953 20.97259 337 ft 57 kts 332°
2026-05-08 19:05 52.16234 20.97011 338 ft 44 kts 330°
2026-05-08 19:06 52.16494 20.96784 338 ft 40 kts 332°
2026-05-08 19:06 52.16734 20.96578 336 ft 35 kts 336°
2026-05-08 19:06 52.16945 20.96513 336 ft 22 kts
2026-05-08 19:06 52.17045 20.96522 333 ft 8 kts
2026-05-08 19:07 52.17091 20.96572 334 ft 9 kts 60°
2026-05-08 19:07 52.17121 20.96670 334 ft 7 kts 62°
2026-05-08 19:07 52.17147 20.96752 335 ft 9 kts 64°
2026-05-08 19:07 52.17144 20.96858 333 ft 11 kts 141°
2026-05-08 19:08 52.17068 20.96918 334 ft 13 kts 151°
2026-05-08 19:08 52.17005 20.96975 332 ft 11 kts 151°
2026-05-08 19:08 52.16934 20.97037 332 ft 12 kts 152°
2026-05-08 19:08 52.16860 20.97100 332 ft 12 kts 154°
2026-05-08 19:09 52.16813 20.97039 335 ft 10 kts 250°